Location: Newark
(49.6569°N, 1.5194°E)
Time: 03:44:40
(UTC+00:00)

Envisat - Visible Passes

Search period start: 17 October 2019 00:00
Search period end: 27 October 2019 00:00
Orbit: 764 x 766 km, 98.1° (Epoch: 16 October)

Date Brightness Start Highest point End Pass type
(mag) Time Alt. Az. Time Alt. Az. Time Alt. Az.
17 Oct 3.0 17:43:52 10° SSE 17:48:57 83° ENE 17:54:04 10° NNW visible
17 Oct 6.0 19:25:41 10° WSW 19:28:38 15° W 19:31:36 10° NW visible
18 Oct 5.0 18:47:00 10° SSW 18:51:27 30° W 18:55:57 10° NNW visible
19 Oct 3.6 18:09:27 10° S 18:14:28 61° W 18:19:32 10° NNW visible
20 Oct 3.0 17:32:40 10° SSE 17:37:42 68° ENE 17:42:46 10° N visible
20 Oct 5.7 19:13:40 10° SW 19:17:14 19° W 19:20:48 10° NW visible
21 Oct 6.1 05:38:10 10° NE 05:41:29 17° E 05:44:47 10° SE visible
21 Oct 4.6 18:35:25 10° SSW 18:40:06 37° W 18:44:50 10° NNW visible
22 Oct 3.2 17:58:06 10° S 18:03:11 75° WSW 18:08:18 10° NNW visible
22 Oct 6.2 19:41:35 10° WSW 19:43:06 11° W 19:44:38 10° WNW visible
23 Oct 3.1 17:21:31 10° SSE 17:26:28 56° ENE 17:31:27 10° N visible
23 Oct 5.4 19:01:50 10° SW 19:05:50 23° W 19:09:52 10° NW visible
24 Oct 6.3 05:27:27 10° NE 05:30:04 14° E 05:32:40 10° ESE visible
24 Oct 4.1 18:23:55 10° S 18:28:47 46° W 18:33:41 10° NNW visible
25 Oct 3.0 17:46:49 10° SSE 17:51:55 89° ENE 17:57:02 10° NNW visible
25 Oct 6.0 19:29:01 10° WSW 19:31:40 14° W 19:34:20 10° NW visible
26 Oct 5.9 05:51:54 10° NE 05:55:54 23° E 05:59:53 10° SE visible
26 Oct 3.3 17:10:25 10° SE 17:15:15 46° ENE 17:20:06 10° N visible
26 Oct 5.1 18:50:06 10° SSW 18:54:28 28° W 18:58:50 10° NW visible
